Doylestown, PA

8:22 AM EDT on July 22, 2017 (GMT -0400)
Doylestown

Weather History for KDYL - April, 2014

Change the Weather History Date:

Tuesday, April 15, 2014

  Actual Average (KTTN) Record (KTTN)
Temperature  
Mean Temperature 50 °F -  
Max Temperature 66 °F 60 °F 86 °F (1994)
Min Temperature 33 °F 40 °F 28 °F (1943)
Degree Days  
Heating Degree Days 16    
Moisture  
Dew Point 54 °F    
Average Humidity 96    
Maximum Humidity 100    
Minimum Humidity 85    
Precipitation  
Precipitation 1.83 in - - ()
Sea Level Pressure  
Sea Level Pressure 29.66 in    
Wind  
Wind Speed 11 mph (SW)    
Max Wind Speed 21 mph    
Max Gust Speed 32 mph    
Visibility 8 miles    
Events Rain , Snow , Thunderstorm    
Averages and records for this station are not official NWS values.
T = Trace of Precipitation, MM = Missing Value Source: NWS Daily Summary

Daily Weather History Graph

Daily Weather History Graph

Search for Another Location

Airport or City:

Trip Planner

Search our weather history database for the weather conditions in past years. The results will help you decide how hot, cold, wet, or windy it might be!

Date:

Astronomy

Apr. 15, 2014 Rise Set
Actual Time 6:22 AM EDT 7:39 PM EDT
Civil Twilight 5:54 AM EDT 8:07 PM EDT
Nautical Twilight 5:20 AM EDT 8:41 PM EDT
Astronomical Twilight 4:44 AM EDT 9:17 PM EDT
Moon 8:17 PM EDT (4/15) 6:28 AM EDT (4/15)
Length of Visible Light 14h 13m
Length of Day
13h 17m
Full, 100% of the Moon is Illuminated
Apr 15
Full
Apr 22
Last Quarter
Apr 29
New
May 6
First Quarter
May 14
Full

Hourly Weather History & Observations

Time (EDT) Temp. Windchill Dew Point Humidity Pressure Visibility Wind Dir Wind Speed Gust Speed Precip Events Conditions
12:54 AM 64.0 °F - - N/A% 29.81 in 10.0 mi South 10.4 mph 16.1 mph N/A   Mostly Cloudy
1:54 AM 64.0 °F - - N/A% 29.78 in 10.0 mi South 8.1 mph 17.3 mph N/A   Overcast
2:54 AM 62.1 °F - - N/A% 29.77 in 10.0 mi SSE 5.8 mph - 0.00 in   Overcast
3:46 AM 63.0 °F - - N/A% 29.77 in 10.0 mi South 9.2 mph - 0.00 in Rain Light Rain
3:54 AM 62.1 °F - - N/A% 29.76 in 10.0 mi SSE 8.1 mph - 0.00 in   Overcast
4:21 AM 62.1 °F - - N/A% 29.75 in 10.0 mi South 10.4 mph 17.3 mph 0.00 in   Overcast
4:54 AM 61.0 °F - - N/A% 29.73 in 10.0 mi South 8.1 mph - 0.00 in   Overcast
5:36 AM 61.0 °F - - N/A% 29.72 in 10.0 mi South 11.5 mph - N/A   Overcast
5:54 AM 62.1 °F - - N/A% 29.71 in 10.0 mi South 11.5 mph 19.6 mph N/A   Overcast
6:45 AM 63.0 °F - 62.1 °F 97% 29.70 in 10.0 mi South 12.7 mph 23.0 mph 0.00 in   Overcast
6:54 AM 63.0 °F - 62.1 °F 97% 29.69 in 10.0 mi South 8.1 mph 23.0 mph 0.00 in   Overcast
7:31 AM 64.0 °F - 62.1 °F 93% 29.69 in 10.0 mi South 8.1 mph 23.0 mph N/A   Overcast
7:54 AM 64.0 °F - 62.1 °F 93% 29.67 in 10.0 mi South 10.4 mph 24.2 mph N/A   Overcast
8:21 AM 64.0 °F - 62.1 °F 93% 29.65 in 10.0 mi SSE 9.2 mph 21.9 mph 0.00 in   Overcast
8:54 AM 64.0 °F - 62.1 °F 93% 29.64 in 10.0 mi SSE 11.5 mph 21.9 mph 0.00 in   Overcast
9:54 AM 64.9 °F - 62.1 °F 90% 29.60 in 10.0 mi SSE 18.4 mph 28.8 mph 0.00 in   Overcast
10:42 AM 63.0 °F - 63.0 °F 100% 29.59 in 2.5 mi SSE 16.1 mph 26.5 mph 0.16 in Rain Rain
10:52 AM 62.6 °F - 62.6 °F 100% 29.59 in 4.0 mi SSE 13.8 mph 29.9 mph 0.19 in Rain Rain
10:54 AM 63.0 °F - 63.0 °F 100% 29.59 in 5.0 mi South 13.8 mph 29.9 mph 0.20 in Rain Rain
11:33 AM 64.0 °F - 64.0 °F 100% 29.59 in 5.0 mi South 12.7 mph 26.5 mph 0.11 in Rain Rain
11:47 AM 64.9 °F - 64.0 °F 97% 29.59 in 8.0 mi South 13.8 mph 24.2 mph 0.13 in Rain Light Rain
11:54 AM 64.9 °F - 64.0 °F 97% 29.57 in 8.0 mi SSW 10.4 mph 24.2 mph 0.14 in Rain Light Rain
12:14 PM 64.0 °F - 64.0 °F 100% 29.54 in 6.0 mi Variable 5.8 mph - 0.07 in Rain Light Rain
12:28 PM 63.0 °F - 63.0 °F 100% 29.57 in 1.8 mi West 10.4 mph - 0.21 in Rain Heavy Rain
12:52 PM 60.8 °F - 60.8 °F 100% 29.55 in 4.0 mi SSW 5.8 mph - 0.63 in Rain Light Rain
12:54 PM 61.0 °F - 61.0 °F 100% 29.54 in 7.0 mi SW 5.8 mph - 0.63 in Rain Light Rain
1:12 PM 61.0 °F - 61.0 °F 100% 29.55 in 10.0 mi Variable 4.6 mph - 0.01 in Rain Light Rain
1:33 PM 62.1 °F - 62.1 °F 100% 29.54 in 10.0 mi South 4.6 mph - 0.02 in Rain Light Rain
1:54 PM 64.0 °F - 64.0 °F 100% 29.51 in 10.0 mi Variable 6.9 mph - 0.03 in   Overcast
2:11 PM 66.0 °F - 64.9 °F 96% 29.52 in 10.0 mi South 11.5 mph 20.7 mph N/A   Overcast
2:54 PM 66.0 °F - 63.0 °F 90% 29.52 in 10.0 mi SSW 16.1 mph 29.9 mph N/A   Overcast
3:07 PM 64.0 °F - 61.0 °F 90% 29.52 in 10.0 mi SSW 8.1 mph - N/A   Overcast
3:14 PM 64.0 °F - 61.0 °F 90% 29.53 in 10.0 mi West 8.1 mph - N/A   Overcast
3:26 PM 62.1 °F - 60.1 °F 93% 29.54 in 10.0 mi WSW 8.1 mph - N/A Thunderstorm Thunderstorm
3:30 PM 62.1 °F - 60.1 °F 93% 29.54 in 1.5 mi WSW 20.7 mph 32.2 mph 0.12 in Rain , Thunderstorm Light Thunderstorms and Rain
3:42 PM 54.0 °F - 53.1 °F 97% 29.56 in 2.5 mi NW 19.6 mph 29.9 mph 0.25 in Rain , Thunderstorm Heavy Thunderstorms and Rain
3:45 PM 53.1 °F - 53.1 °F 100% 29.56 in 1.5 mi NW 18.4 mph 27.6 mph 0.32 in Rain , Thunderstorm Heavy Thunderstorms and Rain
3:47 PM 52.0 °F - 52.0 °F 100% 29.56 in 1.2 mi NW 15.0 mph 27.6 mph 0.40 in Rain Heavy Rain
3:54 PM 52.0 °F - 52.0 °F 100% 29.57 in 1.2 mi NW 15.0 mph 27.6 mph 0.45 in Rain Heavy Rain
4:04 PM 52.0 °F - 52.0 °F 100% 29.60 in 2.0 mi WNW 13.8 mph 24.2 mph 0.10 in Rain Heavy Rain
4:17 PM 52.0 °F - 52.0 °F 100% 29.60 in 4.0 mi NW 9.2 mph - 0.16 in Rain Light Rain
4:34 PM 51.1 °F - 50.0 °F 96% 29.60 in 10.0 mi NNW 12.7 mph 28.8 mph 0.17 in Rain Light Rain
4:54 PM 48.9 °F - 48.0 °F 97% 29.63 in 5.0 mi NNW 11.5 mph 24.2 mph 0.20 in Rain Rain
5:21 PM 46.0 °F 39.9 °F 45.0 °F 96% 29.66 in 6.0 mi NNW 13.8 mph 26.5 mph 0.04 in Rain Light Rain
5:54 PM 45.0 °F 37.9 °F 41.0 °F 86% 29.69 in 10.0 mi NW 16.1 mph 29.9 mph 0.04 in Rain Light Rain
6:54 PM 43.0 °F 36.0 °F 41.0 °F 93% 29.75 in 10.0 mi NW 13.8 mph 21.9 mph 0.03 in Rain Light Rain
7:54 PM 39.9 °F 33.9 °F 37.9 °F 93% 29.80 in 10.0 mi NNW 9.2 mph 27.6 mph 0.02 in Rain Light Rain
8:54 PM 37.0 °F 28.9 °F 36.0 °F 96% 29.87 in 10.0 mi NW 12.7 mph 24.2 mph 0.03 in Rain Light Rain
9:54 PM 35.1 °F 27.4 °F 35.1 °F 100% 29.87 in 10.0 mi NNW 10.4 mph 19.6 mph 0.04 in Rain Light Rain
10:52 PM 33.8 °F 22.8 °F 33.8 °F 100% 29.91 in 5.0 mi NNW 18.4 mph 27.6 mph 0.02 in Snow Light Snow
10:54 PM 33.1 °F 23.9 °F 32.0 °F 96% 29.91 in 5.0 mi NNW 12.7 mph 27.6 mph 0.02 in Snow Light Snow
11:24 PM 34.0 °F 24.6 °F 30.9 °F 89% 29.94 in 9.0 mi NNW 13.8 mph 20.7 mph 0.00 in Snow Light Snow
11:54 PM 34.0 °F 24.6 °F 30.0 °F 85% 29.97 in 10.0 mi NW 13.8 mph 26.5 mph 0.00 in   Overcast